Wind_Speed
14 13 12 11 7 3 1 2 2 2 3 4 6 8 9 9 10 10 10 11 10 10 10 9 8 8 7 7 6 6 6 5 5 5 5 5 4 4 5 5 5 6
15 14 13 12 10 6 4 3 3 3 2 3 4 5 7 7 8 9 10 11 11 11 11 10 10 9 9 9 8 8 8 8 8 7 7 6 6 6 5 5 5 5
17 15 14 13 12 9 7 6 5 4 3 2 2 2 3 4 5 6 7 9 9 10 10 10 10 10 10 10 10 11 11 11 11 11 10 10 9 8 8 7 7 7
19 17 16 15 14 13 12 11 9 8 7 6 6 5 3 2 1 1 3 5 6 7 8 8 9 9 10 10 10 11 11 12 12 12 12 12 12 12 12 12 11 11
20 20 20 18 17 17 16 15 13 11 11 11 12 11 8 6 5 4 3 3 3 4 5 6 7 8 9 9 10 10 10 11 11 11 12 12 13 13 13 13 14 14
24 24 24 23 22 22 21 18 14 12 14 15 15 15 14 12 11 9 8 6 5 4 4 5 6 7 8 9 10 10 10 10 10 10 10 11 12 12 13 13 13 13
26 27 27 27 25 25 24 21 17 15 16 16 15 16 18 17 15 14 13 11 9 8 7 7 7 8 9 10 11 11 12 12 12 13 12 12 12 13 13 14 14 13
28 29 30 29 28 26 24 21 18 18 18 16 15 17 20 20 19 18 18 17 15 13 12 11 10 10 10 11 13 13 14 15 15 16 16 16 15 15 15 16 17 17
31 31 30 31 31 29 26 22 19 20 22 20 18 20 21 21 21 20 20 20 17 16 15 14 12 12 12 13 14 15 16 17 18 19 20 20 20 19 17 17 17 19
30 30 30 31 32 31 30 27 23 23 26 25 24 22 22 23 24 21 21 22 20 19 19 18 16 15 14 14 15 16 17 17 19 21 22 22 22 22 21 20 19 19
30 30 29 29 30 32 31 30 28 27 28 29 29 27 25 27 27 24 22 22 22 21 21 20 19 19 16 15 15 17 18 19 20 21 22 23 23 23 23 24 23 22
33 33 31 28 28 29 30 29 29 29 30 32 36 38 35 32 31 29 26 26 24 21 18 19 21 22 21 18 17 18 19 21 22 23 23 25 25 24 24 25 25 25
35 35 33 30 26 26 26 28 29 30 30 32 37 40 36 31 30 29 28 26 23 19 18 20 23 24 24 24 22 21 20 21 23 25 26 27 27 26 27 27 26 26
36 37 36 34 31 30 30 31 33 35 36 35 34 31 28 26 27 28 27 25 22 19 20 23 25 26 27 28 29 27 24 22 23 26 28 29 29 28 29 30 29 28
37 38 36 35 34 34 34 35 37 39 41 40 35 31 28 27 28 29 28 26 23 20 21 24 25 27 29 30 30 29 28 26 25 27 29 31 32 32 32 32 32 31
34 35 33 31 31 32 33 33 33 32 33 32 30 28 27 26 27 28 27 26 24 23 24 25 27 28 29 29 29 31 32 29 27 28 29 32 34 35 36 36 35 35
26 26 25 27 27 26 26 27 27 27 26 26 26 25 24 25 26 27 27 27 27 27 27 28 30 30 29 27 28 31 33 32 31 30 29 30 33 36 38 40 39 39
27 27 28 29 28 25 25 26 26 27 26 26 27 27 27 27 27 29 30 30 31 30 31 31 32 32 29 26 28 30 32 33 34 33 31 31 34 37 39 40 40 40
32 33 33 33 31 29 28 27 26 25 25 25 27 28 29 29 29 30 32 33 34 34 35 34 33 31 28 27 28 29 31 33 34 33 32 32 34 36 37 36 37 38
31 31 32 32 32 31 29 28 26 25 25 26 27 28 30 31 31 31 31 31 33 35 36 35 32 29 27 28 29 30 31 33 32 33 34 35 35 36 35 35 35 37
26 26 26 25 26 26 26 26 27 28 29 29 30 30 30 31 32 32 31 30 30 32 35 34 31 28 27 28 30 31 30 30 31 33 35 36 36 35 34 35 36 38
24 24 23 23 24 24 25 26 26 27 28 29 30 30 30 29 30 30 30 30 30 32 33 32 30 28 27 28 30 31 30 30 32 33 34 35 35 35 35 36 37 39
26 26 26 27 27 27 27 27 27 27 27 28 29 29 28 28 28 28 29 30 31 31 31 30 30 28 28 28 29 29 29 31 33 34 35 35 36 36 37 38 39 40
28 28 29 29 29 29 29 29 28 28 27 27 27 26 26 26 26 27 28 29 28 27 28 29 29 29 29 29 29 28 29 31 34 35 35 36 37 39 40 40 39 40
29 30 30 31 31 30 30 29 28 28 27 27 27 26 26 26 26 28 29 29 26 25 26 27 27 28 29 30 30 30 30 31 33 35 35 36 38 40 41 39 39 40
29 30 32 33 34 32 31 29 28 28 28 28 28 28 28 28 29 31 32 30 28 27 28 28 28 27 28 29 30 31 31 31 33 34 34 34 36 38 39 39 41 43
Wind_Direction
244 257 269 272 263 235 156 145 138 130 123 111 100 91 87 85 82 80 77 73 72 70 68 66 61 56 50 47 46 45 45 42 37 36 30 23 18 7 353 340 327 319
239 246 256 264 258 240 219 203 176 164 157 127 115 98 89 83 76 77 76 73 70 66 64 61 58 55 49 45 44 43 44 43 40 39 38 36 34 30 24 14 3 355
234 238 247 255 254 248 241 241 238 224 231 238 204 149 108 85 72 68 65 68 67 63 60 54 50 48 44 41 38 36 36 34 33 30 27 25 24 22 19 13 7 1
229 231 240 247 252 254 251 251 256 253 256 265 263 247 214 195 157 57 35 41 47 49 49 45 41 37 34 32 29 28 27 25 25 23 20 17 15 13 10 8 5 360
225 227 233 239 243 249 252 250 251 257 263 265 267 264 249 238 238 239 262 303 336 3 10 14 18 16 14 13 11 11 11 11 12 11 11 9 8 7 5 3 1 358
223 226 231 236 238 241 246 244 240 251 261 263 265 267 263 256 250 246 249 259 268 285 313 329 338 342 344 344 345 347 348 348 350 351 354 356 356 357 356 356 355 353
226 228 230 235 238 240 245 248 243 244 250 255 260 266 269 267 261 256 254 253 257 262 270 282 296 307 313 318 320 321 324 326 327 327 329 330 333 334 336 336 336 337
227 230 232 235 238 242 248 255 257 252 247 244 250 261 267 269 268 265 260 257 259 262 265 270 276 282 286 293 300 303 305 307 309 310 311 311 313 315 318 321 321 322
227 230 233 235 238 240 244 249 255 258 256 252 251 254 257 262 266 266 264 264 265 267 272 276 279 282 282 281 283 285 289 295 297 299 300 302 303 306 311 314 314 313
232 234 236 238 240 241 245 248 248 252 258 259 254 248 247 255 259 258 259 263 266 272 279 282 283 289 291 285 280 279 280 284 288 291 294 296 298 302 308 313 313 311
236 237 240 243 245 247 251 253 253 253 255 258 259 255 250 250 251 250 254 259 261 266 276 282 286 292 293 287 282 282 282 281 282 285 287 290 293 297 303 309 311 312
237 238 241 243 245 250 255 259 262 262 260 260 264 263 257 253 254 252 256 261 258 258 271 283 287 289 290 290 287 285 285 285 284 284 284 285 288 292 298 303 305 307
242 243 244 244 246 251 256 262 266 268 268 269 269 264 257 259 265 265 268 273 271 271 282 290 291 289 288 292 295 295 291 287 285 285 285 284 284 288 293 297 298 299
248 249 250 250 250 251 254 259 263 268 271 272 270 267 266 273 280 281 282 281 279 280 283 285 289 290 289 291 293 295 295 292 287 285 285 284 283 285 289 292 294 294
247 249 251 253 254 255 257 260 264 268 271 268 266 271 277 281 282 284 284 280 278 278 278 279 283 287 291 290 289 291 294 295 294 288 284 284 284 284 286 287 289 290
249 250 254 257 260 263 264 266 267 269 270 269 268 271 275 276 278 280 281 281 279 274 273 277 280 283 287 287 287 291 293 294 296 292 284 281 282 282 284 286 286 286
256 256 259 262 262 263 266 268 267 266 269 272 274 275 276 277 279 281 281 281 278 273 272 276 277 277 279 281 284 290 291 291 292 290 284 281 279 279 281 284 285 285
260 262 266 266 264 264 266 267 266 266 269 273 277 278 279 278 278 279 280 281 279 276 275 275 274 274 275 276 278 282 284 285 286 287 286 284 281 280 279 281 284 287
259 261 264 265 265 266 267 268 269 272 273 275 278 280 280 280 277 274 273 274 275 275 273 273 272 272 274 275 275 277 278 280 282 284 284 282 280 280 281 283 286 287
259 258 259 262 264 265 265 266 270 275 278 280 282 283 283 282 280 277 273 270 270 271 272 273 272 271 273 274 274 274 274 277 280 280 279 277 276 278 282 285 284 284
259 260 263 266 269 270 271 272 273 276 279 281 282 282 281 279 277 276 274 270 268 268 270 272 273 272 272 271 271 272 274 275 276 275 275 276 278 282 285 284 281 281
264 268 273 276 277 278 278 278 278 278 279 279 280 280 279 278 276 274 273 269 267 267 269 272 274 275 273 271 272 273 273 272 273 276 277 280 284 286 286 283 281 281
271 277 280 281 281 281 279 279 279 279 279 279 279 278 278 277 276 274 272 269 267 268 270 272 274 274 273 270 270 270 269 269 273 276 278 281 284 285 284 284 283 279
276 281 284 285 284 280 279 279 279 280 280 279 278 278 278 277 276 274 271 271 273 274 274 273 274 273 270 268 268 268 266 267 270 273 275 279 281 282 283 284 282 279
277 282 286 286 284 281 279 278 278 278 279 278 278 279 280 281 281 276 273 274 279 281 281 281 279 274 270 268 269 269 266 264 267 269 271 274 277 279 279 280 281 283
277 283 286 286 284 282 280 278 279 280 279 279 280 282 284 285 283 279 278 279 282 284 286 286 283 277 274 271 269 268 266 264 264 265 267 270 274 277 278 279 282 286
Height
3117 3117 3118 3119 3120 3120 3120 3119 3119 3119 3119 3119 3120 3120 3120 3120 3119 3119 3119 3118 3118 3118 3119 3119 3119 3119 3120 3120 3120 3121 3121 3121 3122 3122 3122 3123 3123 3123 3123 3124 3124 3124
3116 3117 3117 3119 3120 3120 3120 3119 3119 3120 3120 3120 3120 3121 3121 3121 3121 3120 3120 3120 3120 3120 3120 3120 3120 3120 3121 3121 3121 3121 3122 3122 3122 3122 3123 3123 3123 3123 3123 3123 3123 3123
3115 3116 3117 3118 3119 3119 3120 3119 3119 3120 3120 3121 3121 3121 3122 3122 3122 3122 3121 3121 3121 3121 3121 3121 3121 3121 3121 3122 3122 3122 3122 3122 3123 3123 3123 3123 3123 3123 3123 3123 3123 3123
3114 3115 3116 3117 3118 3118 3119 3119 3119 3119 3120 3121 3121 3121 3122 3122 3122 3122 3122 3122 3122 3122 3122 3122 3122 3122 3122 3122 3122 3123 3123 3122 3123 3123 3123 3123 3123 3123 3123 3123 3123 3123
3113 3114 3114 3115 3117 3117 3118 3118 3119 3119 3120 3120 3120 3120 3121 3122 3122 3122 3122 3122 3122 3122 3122 3122 3123 3122 3122 3122 3123 3123 3123 3123 3122 3122 3123 3123 3123 3123 3122 3122 3122 3122
3111 3112 3113 3114 3115 3115 3115 3117 3118 3118 3119 3119 3119 3119 3119 3121 3121 3122 3122 3122 3121 3122 3122 3122 3122 3123 3123 3123 3122 3123 3123 3123 3123 3122 3122 3122 3122 3122 3122 3122 3122 3122
3110 3111 3112 3112 3113 3114 3115 3116 3117 3117 3118 3118 3118 3118 3118 3119 3120 3121 3121 3122 3121 3121 3121 3121 3122 3122 3122 3122 3122 3122 3122 3122 3122 3122 3122 3122 3122 3122 3121 3121 3121 3121
3108 3109 3110 3111 3112 3113 3114 3115 3116 3117 3116 3116 3117 3117 3116 3117 3118 3119 3120 3120 3121 3121 3121 3121 3121 3121 3121 3121 3121 3121 3121 3121 3121 3121 3121 3121 3121 3120 3120 3120 3119 3119
3105 3107 3109 3110 3110 3111 3111 3112 3114 3114 3114 3114 3115 3115 3115 3115 3116 3117 3117 3118 3119 3120 3120 3120 3120 3120 3120 3120 3120 3120 3120 3120 3120 3119 3119 3119 3119 3118 3118 3118 3118 3117
3103 3105 3106 3107 3107 3108 3109 3110 3111 3111 3111 3112 3113 3112 3112 3112 3113 3114 3115 3116 3117 3117 3118 3118 3118 3118 3118 3118 3118 3118 3118 3118 3118 3118 3117 3117 3117 3117 3116 3116 3116 3116
3101 3102 3103 3104 3105 3105 3106 3107 3109 3109 3109 3109 3109 3109 3109 3109 3111 3112 3113 3113 3114 3114 3114 3115 3115 3115 3115 3115 3115 3115 3115 3115 3116 3116 3115 3115 3115 3115 3114 3114 3114 3113
3099 3099 3100 3101 3102 3103 3104 3105 3106 3107 3107 3107 3107 3106 3108 3109 3110 3110 3110 3110 3111 3111 3112 3113 3112 3112 3111 3111 3112 3113 3113 3113 3112 3113 3113 3113 3112 3112 3112 3112 3112 3111
3096 3097 3098 3098 3099 3101 3102 3103 3103 3102 3103 3104 3104 3103 3106 3108 3108 3108 3108 3107 3108 3108 3109 3110 3110 3109 3109 3108 3109 3109 3110 3110 3110 3110 3110 3109 3109 3110 3110 3110 3110 3110
3093 3094 3094 3095 3097 3098 3099 3100 3099 3099 3100 3101 3100 3100 3103 3104 3104 3104 3105 3105 3106 3106 3106 3106 3107 3107 3107 3106 3106 3106 3107 3107 3107 3107 3107 3107 3106 3107 3107 3107 3107 3107
3089 3090 3090 3091 3092 3094 3095 3095 3096 3096 3096 3097 3097 3097 3098 3099 3099 3100 3101 3102 3103 3104 3104 3103 3103 3103 3104 3104 3103 3103 3103 3104 3104 3104 3104 3104 3103 3103 3103 3103 3104 3103
3086 3087 3087 3088 3088 3089 3090 3091 3092 3092 3092 3093 3094 3094 3095 3096 3096 3096 3096 3098 3100 3101 3100 3100 3101 3101 3101 3101 3101 3100 3099 3100 3101 3101 3100 3100 3100 3100 3099 3099 3099 3099
3084 3085 3086 3086 3086 3086 3087 3088 3089 3090 3090 3090 3091 3091 3092 3093 3093 3092 3093 3094 3095 3096 3096 3097 3098 3098 3098 3099 3098 3097 3095 3095 3096 3096 3096 3095 3095 3095 3095 3095 3095 3095
3082 3083 3083 3083 3084 3084 3084 3085 3086 3087 3088 3088 3088 3088 3089 3090 3090 3090 3090 3090 3091 3091 3092 3093 3093 3094 3095 3096 3095 3093 3092 3091 3091 3091 3091 3091 3091 3090 3090 3090 3090 3090
3079 3079 3080 3080 3081 3081 3082 3082 3083 3084 3084 3085 3085 3085 3086 3086 3087 3088 3088 3088 3088 3087 3088 3088 3089 3089 3091 3092 3091 3089 3088 3087 3088 3088 3087 3087 3087 3086 3085 3085 3085 3085
3074 3075 3076 3076 3077 3077 3078 3079 3079 3080 3081 3081 3082 3082 3083 3083 3083 3084 3085 3085 3084 3083 3083 3083 3084 3085 3086 3086 3086 3085 3084 3084 3085 3085 3083 3082 3081 3081 3082 3082 3081 3080
3070 3071 3072 3073 3073 3074 3075 3075 3076 3077 3077 3077 3078 3079 3079 3079 3079 3079 3081 3081 3080 3079 3078 3079 3080 3082 3082 3082 3081 3081 3081 3081 3081 3081 3079 3077 3077 3077 3078 3078 3077 3077
3067 3068 3069 3070 3071 3071 3072 3072 3073 3073 3074 3073 3074 3074 3074 3074 3074 3074 3076 3076 3076 3075 3075 3075 3076 3077 3078 3077 3076 3076 3077 3077 3076 3076 3075 3073 3073 3073 3073 3073 3073 3073
3064 3065 3066 3067 3068 3068 3069 3069 3069 3070 3070 3070 3070 3070 3070 3070 3070 3070 3070 3070 3071 3072 3072 3072 3072 3072 3072 3072 3072 3072 3073 3073 3073 3072 3071 3069 3068 3068 3067 3067 3068 3068
3061 3061 3062 3063 3064 3065 3065 3066 3066 3066 3067 3067 3066 3066 3066 3066 3066 3065 3065 3065 3066 3067 3068 3067 3067 3067 3067 3067 3067 3068 3069 3069 3068 3068 3066 3065 3064 3063 3062 3063 3064 3064
3057 3058 3058 3059 3060 3060 3061 3062 3063 3063 3063 3063 3063 3062 3062 3062 3061 3061 3060 3062 3063 3063 3063 3063 3063 3062 3062 3062 3063 3063 3064 3064 3063 3063 3062 3061 3060 3059 3059 3060 3060 3059
3053 3053 3054 3054 3054 3055 3057 3058 3059 3059 3059 3059 3059 3059 3058 3058 3057 3056 3056 3058 3059 3059 3059 3059 3058 3058 3058 3058 3058 3058 3058 3059 3058 3058 3057 3057 3057 3057 3057 3057 3055 3054